Regional Weather Roundup
Issued by NWS

Home | Current Version | Previous Version | Graphics & Text | Print | Product List | Glossary On
Versions: 1 2 3 4 5 6 7 8 9 10 11 12 13 14 15 16 17 18 19 20 21 22 23 24 25 26 27 28 29 30 31 32 33 34 35 36 37 38 39 40 41 42 43 44 45 46 47 48 49 50
000
ASUS45 KCYS 230110
RWRWY

WYOMING REGIONAL WEATHER ROUNDUP
NATIONAL WEATHER SERVICE CHEYENNE WY
700 PM MDT TUE JUL 22 2014

NOTE:  "FAIR" INDICATES FEW OR NO CLOUDS BELOW 12,000 FEET
WITH NO SIGNIFICANT WEATHER AND/OR OBSTRUCTIONS TO VISIBILITY.

WYZ001-230200-
YELLOWSTONE NATIONAL PARK

CITY           SKY/WX    TMP DP  RH WIND       PRES   REMARKS
LK YELLOWSTONE   N/A     73  39  29 CALM      30.48F
W YELLOWSTONE  NOT AVBL

$$
WYZ002>013-054>058-071-098>099-230200-
NORTHERN WYOMING

CITY           SKY/WX    TMP DP  RH WIND       PRES   REMARKS
JACKSON        SUNNY    102  36  10 CALM      30.33F HX  96
CODY           MOSUNNY   86  46  25 NE7       30.21S
GREYBULL       SUNNY     96  37  12 SE3       30.09F HX  91
WORLAND        SUNNY     96  36  12 SW3       30.10F HX  91
SHERIDAN       SUNNY     90  52  27 N9        30.15R
BUFFALO        SUNNY     85  46  25 NW13      30.24R
GILLETTE       SUNNY     82  54  37 E12       30.19R
HULETT         FAIR      73  63  68 MISG      30.21
NEWCASTLE      FAIR      70  55  60 MISG      30.24

$$
WYZ014>020-022>026-101>103-230200-
CENTRAL WYOMING

CITY           SKY/WX    TMP DP  RH WIND       PRES   REMARKS
BIG PINEY      SUNNY     86  21   9 NW7       30.38F
PINEDALE       CLEAR     82  32  16 NW6       30.39F
DUBOIS         FAIR      81  30  16 NW13G20   30.39S
LANDER         SUNNY     89  34  14 SE3       30.22F
RIVERTON       SUNNY     91  34  13 CALM      30.23F
CASPER         SUNNY     92  33  12 E5        30.22S
DOUGLAS        SUNNY     88  53  30 SE14      30.23S

$$
WYZ021-027>030-104>119-230200-
SOUTHERN WYOMING

CITY           SKY/WX    TMP DP  RH WIND       PRES   REMARKS
EVANSTON       SUNNY     86  31  13 W9        30.35F
KEMMERER       CLEAR    N/A N/A N/A W14       30.39F
FORT BRIDGER   FAIR      89  28  11 E9        30.38S
ROCK SPRINGS   SUNNY     88  24  10 NW9       30.34F
DIXON          FAIR      92  21   8 CALM      30.35S
RAWLINS        SUNNY     89  21   8 W8        30.35F
SARATOGA       FAIR      88  27  11 N5        30.39S
LARAMIE        SUNNY     79  43  27 SE18      30.42S
CHEYENNE       PTSUNNY   82  50  32 S8G22     30.37R
TORRINGTON     MOSUNNY   88  58  36 E20       30.18S
PINE BLUFFS    FAIR      82  52  34 E6        30.31R

$$



USA.gov is the U.S. government's official web portal to all federal, state and local government web resources and services.